Delta Virtual Airport Information Service

Tel Aviv Ben Gurion International Airport

ICAO: LLBG Country: Israel
Latitude: 32.0114 Longitude: 34.8867
Latest Arrival : ELY14 (1A) (KJFK-LLBG) Latest Departure : AZA822 (1) (LLBG-LGAV)


WX CaptureLIVE
Data provided by noaa.gov | Fetched at 01:00:31

METAR : LLBG 120550Z VRB02KT CAVOK 24/14 Q1010 NOSIG

TAF : LLBG 120509Z 1206/1306 VRB03KT CAVOK BECMG 1207/1209 30010KT BECMG 1215/1218 VRB04KT 9999 FEW018 PROB30 TEMPO 1300/1306 7000 BKN015 TX28/1210Z TN18/1303Z


Runway Data for LLBG
Data provided by openaviationdata.com

Runway ID Mag Var Hdg Length Elevation Surface ILS Freq ILS Id ILS Slope
3 3 25° 5848 ft 135 ft Asphalt -- -- --
8 3 76° 11949 ft 135 ft Asphalt -- -- --
12 3 118° 10134 ft 135 ft Asphalt 110.3 BG 3
21 3 205° 5848 ft 135 ft Asphalt -- -- --
26 3 256° 11949 ft 135 ft Asphalt 108.7 BA 3
30 3 298° 10134 ft 135 ft Asphalt -- -- --

Tel Aviv Ben Gurion International Airport, Israel
Use only for reference purposes



Not for navigational purposes.